Simultaneous Nadir Overpasses (SNOs) Predictions

Prediction of SNOs between GOES-15 and LANDSAT-8 Satellite Orbit:

Table of predicted SNOs for the next 14.0 days since TLE Epoch: 6/14/2024
Index Date Time (GOES-15) GOES-15 Lat,Lon LANDSAT-8 Lat,Lon Distance(km) Time Diff (sec)
1 06/15/2024 05:55:41 -0.15, 61.32 -0.64, 63.52 250.08 80
2 06/15/2024 18:19:44 0.12, 61.35 -0.51, 58.33 342.44 80
3 06/17/2024 18:07:35 0.13, 61.32 0.12, 61.28 4.57 80
4 06/19/2024 17:52:47 0.14, 61.31 0.77, 64.23 332.60 80
5 06/20/2024 06:16:41 -0.10, 61.27 0.39, 59.09 249.21 80
6 06/22/2024 06:01:52 -0.12, 61.27 -0.28, 62.03 86.93 80
7 06/24/2024 05:49:42 -0.13, 61.27 -0.92, 64.99 422.59 80
8 06/24/2024 18:13:46 0.10, 61.31 -0.21, 59.80 170.77 80
9 06/26/2024 17:58:56 0.11, 61.31 0.45, 62.75 164.83 80
10 06/27/2024 06:22:51 -0.08, 61.27 0.70, 57.61 416.79 80
